This is the latest recevied weather packets stored in our database for station/object K4KMJ. If no packets are shown the sender has not sent any weather packets the latest 10 day(s).
| Time | Temp. | Humidity | Pressure | Rain* | Wind** | Luminosity | Snow |
|---|---|---|---|---|---|---|---|
| 1777847615 | 22.78° C | 75% | 1018.4 hPa | 0 mm | - | 83 W/m² | - |
| 1777847311 | 22.78° C | 74% | 1018.3 hPa | 0 mm | - | 104 W/m² | - |
| 1777847009 | 22.78° C | 74% | 1018.4 hPa | 0 mm | - | 104 W/m² | - |
| 1777846707 | 22.78° C | 74% | 1018.2 hPa | 0 mm | - | 114 W/m² | - |
| 1777846405 | 22.78° C | 74% | 1018.1 hPa | 0 mm | - | 135 W/m² | - |
| 1777846095 | 22.78° C | 74% | 1018.1 hPa | 0 mm | - | 144 W/m² | - |
| 1777845792 | 22.78° C | 73% | 1018.4 hPa | 0 mm | - | 126 W/m² | - |
| 1777845489 | 22.78° C | 73% | 1018.3 hPa | 0 mm | - | 102 W/m² | - |
| 1777845186 | 23.33° C | 73% | 1018.3 hPa | 0 mm | - | 182 W/m² | - |
| 1777844884 | 23.33° C | 73% | 1018.3 hPa | 0 mm | - | 186 W/m² | - |
| 1777844581 | 22.78° C | 73% | 1018.1 hPa | 0 mm | - | 260 W/m² | - |
| 1777844278 | 23.33° C | 72% | 1018 hPa | 0 mm | - | 243 W/m² | - |
| 1777843975 | 23.33° C | 73% | 1017.9 hPa | 0 mm | - | 208 W/m² | - |
| 1777843672 | 23.33° C | 72% | 1018 hPa | 0 mm | - | 256 W/m² | - |
| 1777843370 | 23.33° C | 72% | 1018.1 hPa | 0 mm | - | 261 W/m² | - |
| 1777843067 | 23.33° C | 72% | 1018.1 hPa | 0 mm | - | 300 W/m² | - |
| 1777842764 | 23.33° C | 71% | 1018.2 hPa | 0 mm | - | 311 W/m² | - |
| 1777842459 | 23.89° C | 72% | 1018.3 hPa | 0 mm | - | 252 W/m² | - |
| 1777842157 | 23.33° C | 72% | 1018.2 hPa | 0 mm | - | 290 W/m² | - |
| 1777841852 | 22.78° C | 72% | 1018 hPa | 0 mm | - | 168 W/m² | - |
| 1777841549 | 23.33° C | 72% | 1018.3 hPa | 0 mm | - | 194 W/m² | - |
| 1777841245 | 23.33° C | 71% | 1018.3 hPa | 0 mm | - | 222 W/m² | - |
| 1777840943 | 23.89° C | 72% | 1018.1 hPa | 0 mm | - | 238 W/m² | - |
| 1777840640 | 23.33° C | 72% | 1018.2 hPa | 0 mm | - | 276 W/m² | - |
| 1777840337 | 23.33° C | 71% | 1018.3 hPa | 0 mm | - | 226 W/m² | - |
* Rain latest hour (hover to see other rain measurements)
** Current wind speed in m/s (hover to see current wind gust speed)